Regional Weather Roundup
Issued by NWS

Home | Current Version | Previous Version | Text Only | Print | Product List | Glossary On
Versions: 1 2 3 4 5 6 7 8 9 10 11 12 13 14 15 16 17 18 19 20 21 22 23 24 25 26 27 28 29 30 31 32 33 34 35 36 37 38 39 40 41 42 43 44 45 46 47 48 49 50
000
ASUS43 KBIS 270110
RWRND

NORTH DAKOTA REGIONAL WEATHER ROUNDUP
NATIONAL WEATHER SERVICE BISMARCK ND
700 PM CST MON JAN 26 2015

NOTE: "FAIR" INDICATES FEW OR NO CLOUDS BELOW 12,000 FEET WITH NO
SIGNIFICANT WEATHER AND/OR OBSTRUCTIONS TO VISIBILITY.


NDZ001>003-009>011-017-270200-
NORTHWEST NORTH DAKOTA

CITY           SKY/WX    TMP DP  RH WIND       PRES   REMARKS
WILLISTON      PTCLDY    35  29  78 S3        29.90F
MINOT          MOCLDY    37  31  78 S5        29.93F
MINOT AFB      PTCLDY    34  34  99 S1        29.93S
$$

NDZ018>021-031>035-040>046-270200-
SOUTHWEST NORTH DAKOTA

CITY           SKY/WX    TMP DP  RH WIND       PRES   REMARKS
BISMARCK       MOCLDY    35  31  85 E5        29.98R
DICKINSON      PTCLDY    41  32  70 S6        29.91F
GARRISON         N/A     36  31  82 CALM      29.94S
HETTINGER ARPT PTCLDY    39  32  76 CALM      29.95F
$$

NDZ004>008-012>016-024-026-027-054-270200-
NORTHEAST NORTH DAKOTA

CITY           SKY/WX    TMP DP  RH WIND       PRES   REMARKS
GRAND FORKS    MOCLDY    28  25  88 CALM      29.98R
GRND FRKS AFB  CLOUDY    28  25  88 NE3       29.99R
DEVILS LAKE    CLOUDY    34  28  80 NW3       29.94S
$$

NDZ022-023-025-028>030-036>039-047>053-270200-
SOUTHEAST NORTH DAKOTA

CITY           SKY/WX    TMP DP  RH WIND       PRES   REMARKS
FARGO          MOCLDY    31  26  82 N7        29.99R
JAMESTOWN      CLEAR     33  29  85 NW6       29.96R
$$



USA.gov is the U.S. government's official web portal to all federal, state and local government web resources and services.